Location: Poughquag
(41.6090°N, 73.6820°W)
Time: 11:26:29
(UTC-04:00)

Tiros 1 despin weight - Pass Details

Date: 29 May 2020
Orbit: 593 x 642 km, 48.2° (Epoch: 07 July)

Event Time Altitude Azimuth Distance (km) Brightness Sun altitude
Rises 15:35:51 0° 293° (WNW) 2,886 ? 50.5°
Reaches altitude 10° 15:38:17 10° 301° (WNW) 1,971 ? 50.0°
Maximum altitude 15:42:34 41° 12° (NNE) 884 ? 49.3°
Drops below altitude 10° 15:46:47 10° 83° (E) 1,940 ? 48.5°
Sets 15:49:10 0° 91° (E) 2,835 ? 48.1°
